User: anonymous   Login
Location: Pine Mountain Observatory
(43.7910°N, 120.9377°W)
Time: 05:54:34
(UTC-08:00)
Language:

Cosmos 1867 - Orbit

View from above orbital plane
View from above orbital plane
View from above satellite
View from above satellite

Ground track
Ground track

The orbit data is extracted from the following two-line orbital elements,

1 18187U 87060A   15058.54336494 -.00000033  00000-0  25331-4 0  9998
2 18187 065.0101 061.3741 0014092 276.4326 083.5153 14.31045542443700
Epoch (UTC): 27 February 2015 13:02:26
Eccentricity: 0.0014092
inclination: 65.0101°
perigee height: 778 km
apogee height: 798 km
right ascension of ascending node: 61.3741°
argument of perigee: 276.4326°
revolutions per day: 14.31045542
mean anomaly at epoch: 83.5153°
orbit number at epoch: 44370

The dashed part of the orbit path shows where the satellite is in the earth's shadow,  

DLR